Weather History for KWLD - March, 2013

Change the Weather History Date:

Wednesday, March 20, 2013

  Actual Average (KPNC) Record (KPNC)
Temperature  
Mean Temperature 38 °F -  
Max Temperature 51 °F 65 °F 87 °F (1953)
Min Temperature 26 °F 40 °F 15 °F (1965)
Degree Days  
Heating Degree Days 26    
Moisture  
Dew Point 21 °F    
Average Humidity 54    
Maximum Humidity 92    
Minimum Humidity 28    
Precipitation  
Precipitation 0.00 in - - ()
Sea Level Pressure  
Sea Level Pressure 30.29 in    
Wind  
Wind Speed 4 mph (NNE)    
Max Wind Speed 14 mph    
Max Gust Speed -    
Visibility 10 miles    
Events      
Averages and records for this station are not official NWS values.
T = Trace of Precipitation, MM = Missing Value Source: NWS Daily Summary

Daily Weather History Graph

Daily Weather History Graph

Search for Another Location

Airport or City:

Trip Planner

Search our weather history database for the weather conditions in past years. The results will help you decide how hot, cold, wet, or windy it might be!

Date:

Astronomy

Mar. 20, 2013 Rise Set
Actual Time 7:31 AM CDT 7:40 PM CDT
Civil Twilight 7:05 AM CDT 8:06 PM CDT
Nautical Twilight 6:35 AM CDT 8:36 PM CDT
Astronomical Twilight 6:04 AM CDT 9:07 PM CDT
Moon 1:23 PM CDT (3/20) 3:04 AM CDT (3/20)
Length of Visible Light 13h 00m
Length of Day
12h 08m
First Quarter, 59% of the Moon is Illuminated
Mar 20
First Quarter
Mar 27
Full
Apr 2
Last Quarter
Apr 10
New
Apr 18
First Quarter

Hourly Weather History & Observations

Time (CDT) Temp. Windchill Dew Point Humidity Pressure Visibility Wind Dir Wind Speed Gust Speed Precip Events Conditions
12:54 AM 32.0 °F - 28.9 °F 88% 30.32 in 10.0 mi Calm Calm - N/A   Clear
1:54 AM 30.0 °F - 27.0 °F 88% 30.31 in 10.0 mi Calm Calm - N/A   Clear
2:54 AM 27.0 °F - 24.1 °F 89% 30.32 in 10.0 mi Calm Calm - N/A   Clear
3:54 AM 26.1 °F 21.9 °F 24.1 °F 92% 30.32 in 10.0 mi North 3.5 mph - N/A   Clear
4:54 AM 27.0 °F 20.5 °F 25.0 °F 92% 30.33 in 9.0 mi North 5.8 mph - N/A   Clear
5:54 AM 26.1 °F 20.5 °F 24.1 °F 92% 30.35 in 8.0 mi North 4.6 mph - N/A   Clear
6:54 AM 26.1 °F 19.4 °F 24.1 °F 92% 30.39 in 7.0 mi NW 5.8 mph - N/A   Clear
7:54 AM 28.9 °F 22.8 °F 27.0 °F 92% 30.43 in 8.0 mi North 5.8 mph - N/A   Clear
8:54 AM 34.0 °F 26.0 °F 21.9 °F 61% 30.45 in 10.0 mi NNE 10.4 mph - N/A   Clear
9:54 AM 36.0 °F 27.1 °F 19.0 °F 50% 30.45 in 10.0 mi NNE 13.8 mph - N/A   Clear
10:54 AM 39.9 °F 32.1 °F 15.1 °F 36% 30.43 in 10.0 mi NE 13.8 mph - N/A   Clear
11:54 AM 44.1 °F 38.1 °F 15.1 °F 31% 30.42 in 10.0 mi NNE 11.5 mph - N/A   Clear
12:54 PM 46.9 °F - 16.0 °F 29% 30.40 in 10.0 mi Variable 4.6 mph - N/A   Clear
1:54 PM 48.0 °F - 16.0 °F 28% 30.36 in 10.0 mi Variable 3.5 mph - N/A   Clear
2:54 PM 50.0 °F - 18.0 °F 28% 30.30 in 10.0 mi Variable 4.6 mph - N/A   Clear
3:54 PM 50.0 °F - 18.0 °F 28% 30.26 in 10.0 mi WNW 6.9 mph - N/A   Clear
4:54 PM 51.1 °F - 19.9 °F 29% 30.22 in 10.0 mi Calm Calm - N/A   Clear
5:54 PM 48.0 °F - 19.0 °F 32% 30.19 in 10.0 mi Calm Calm - N/A   Clear
6:54 PM 48.0 °F - 18.0 °F 30% 30.17 in 10.0 mi Calm Calm - N/A   Clear
7:54 PM 46.0 °F - 19.9 °F 35% 30.15 in 10.0 mi Calm Calm - N/A   Clear
8:54 PM 45.0 °F 42.6 °F 19.9 °F 37% 30.13 in 10.0 mi ESE 4.6 mph - N/A   Clear
9:54 PM 42.1 °F 37.1 °F 21.0 °F 43% 30.12 in 10.0 mi East 8.1 mph - N/A   Clear
10:54 PM 41.0 °F 34.7 °F 19.9 °F 43% 30.09 in 10.0 mi ESE 10.4 mph - N/A   Clear
11:54 PM 41.0 °F 35.2 °F 19.0 °F 41% 30.06 in 10.0 mi ESE 9.2 mph - N/A   Clear